Location: Les Salelles
(44.4192°N, 4.1044°E)
Time: 13:53:54
(UTC+00:00)

ISS - Visible Passes

Search period start: 06 May 2021 00:00
Search period end: 16 May 2021 00:00
Orbit: 418 x 421 km, 51.6° (Epoch: 05 May)

Date Brightness Start Highest point End Pass type
(mag) Time Alt. Az. Time Alt. Az. Time Alt. Az.
06 May -1.0 00:48:19 16° ENE 00:48:19 16° ENE 00:49:07 10° ENE visible
06 May -2.0 02:21:16 20° WNW 02:22:49 29° NNW 02:25:50 10° NE visible
07 May -2.3 01:35:21 35° NNW 01:35:21 35° NNW 01:38:26 10° NE visible
07 May -1.5 03:09:56 10° NW 03:12:43 23° N 03:15:31 10° ENE visible
08 May -1.5 00:49:23 25° NE 00:49:23 25° NE 00:51:02 10° NE visible
08 May -1.5 02:22:20 10° WNW 02:25:06 23° N 02:27:54 10° NE visible
09 May -0.6 00:03:25 11° NE 00:03:25 11° NE 00:03:37 10° NE visible
09 May -1.7 01:36:22 21° NW 01:37:30 25° N 01:40:23 10° NE visible
09 May -1.6 03:12:03 10° NW 03:15:01 27° NNE 03:17:58 10° ENE visible
10 May -1.7 00:50:21 28° N 00:50:21 28° N 00:52:54 10° NE visible
10 May -1.4 02:24:34 10° NW 02:27:25 24° N 02:30:15 10° ENE visible
11 May -1.1 00:04:18 18° NE 00:04:18 18° NE 00:05:29 10° NE visible
11 May -1.3 01:37:14 11° NW 01:39:47 23° N 01:42:34 10° ENE visible
11 May -2.4 03:13:57 10° NW 03:17:11 41° NNE 03:20:25 10° E visible
12 May -1.4 00:51:09 20° NNW 00:52:09 23° N 00:54:57 10° NE visible
12 May -1.9 02:26:32 10° NW 02:29:38 32° NNE 02:32:43 10° E visible
13 May -1.4 00:04:58 24° N 00:04:58 24° N 00:07:24 10° NE visible
13 May -1.6 01:39:05 10° NW 01:42:02 27° NNE 01:44:59 10° ENE visible
13 May -3.7 03:15:48 10° WNW 03:19:12 87° NE 03:22:34 10° ESE visible
13 May -1.2 23:18:34 19° NNE 23:18:34 19° NNE 23:19:55 10° NE visible
14 May -1.4 00:51:35 10° NW 00:54:26 24° N 00:57:16 10° ENE visible
14 May -3.1 02:28:22 10° NW 02:31:43 58° NNE 02:35:03 10° ESE visible
14 May -3.6 20:49:10 10° SW 20:52:25 49° SE 20:55:35 11° ENE visible
14 May -2.1 22:26:11 10° W 22:29:20 35° NNW 22:32:29 10° NE visible
15 May -1.3 00:04:01 10° NW 00:06:47 23° N 00:09:34 10° ENE visible
15 May -2.4 01:40:57 10° NW 01:44:12 41° NNE 01:47:26 10° E visible
15 May -3.2 03:17:51 10° WNW 03:20:59 36° SW 03:24:06 10° SSE visible
15 May -3.0 20:02:05 10° SSW 20:05:04 30° SE 20:08:04 10° ENE visible
15 May -2.7 21:38:31 10° W 21:41:47 46° NNW 21:45:04 10° NE visible
15 May -1.3 23:16:22 10° WNW 23:19:09 23° N 23:21:56 10° NE visible
